TITAN 3C TRANSTAGE DEB, 38701

Orbit data source: Space-Track

TITAN 3C TRANSTAGE DEB, 38701 is space debris in GEO originally from a launch on Thu, 26 Sep 1968 UTC launched from the Air Force Eastern Test Range (AFETR). Debris objects in space refer to the collection of defunct objects orbiting the Earth. Examples of debris include non-operational satellites, rocket bodies, and fragments generated from explosions, collisions, or faulty payload assembly.

Not visible in the next 10 days
Identifier
38701, 1968-081AB
Orbit
GEO
Country
Flag of USUS
Related business
Manufacturer
Unknown
Mission
Spacecraft
Bus & Motor
Unknown
Mass
Unknown
Launch date (UTC)
1968-09-26 (57 years ago)
Launch vehicle
Unknown
Launch site
Air Force Eastern Test Range (AFETR)
Object type
Payload
Rocket body
Debris
Shape & HBR
Unknown shape, 1.1 m
Radar Cross Section
Small (<0.1 m²)

Expand to show TLE details & history
Last TLE update: 5 days ago

TLE from 5 days ago
0 TITAN 3C TRANSTAGE DEB
1 38701U 68081AB  26063.82547328 -.00000327  00000-0  00000+0 0  9990
2 38701   2.1654  49.0905 0248038 271.6371  86.1216  1.01155464 18648
Epoch: 2026-03-04T19:48Z
TLE epoch observation values (Epoch: 2026-03-04T19:48:40.891Z)
Latitude
-0.00001°
Longitude
-50.02838°
Altitude
35,492.245 km
Speed
3.087 km/s
True Right ascension
03h 18m 54s
True Declination
0° 00' 00"
Sunlit
Object was in daylight at epoch
Visualization orbit readout
Latitude
Unknown
Longitude
Unknown
Altitude
Unknown
Speed
Unknown
Apparent Right ascension
Unknown
Apparent Declination
Unknown
Sunlit
N/A
Visualization observer readout
Local Sidereal Time
16:44:35
Azimuth
Unknown
Elevation
Unknown
Doppler factor
Unknown
Orbital elements
Apogee altitude
36,581.52 km
Perigee altitude
34,501.975 km
Semi-major axis
41,919.885 km
Eccentricity
0.0248
Inclination
2.1654°
RAAN
49.0905°
Arg. of periapsis
271.6371°
True anomaly
88.96219°
Mean anomaly
86.1216°
Eccentric anomaly
87.54144°
Mean motion
0.25288 °/min
Orbital period
1,423.6 mins
BSTAR
0
Loading maneuver chart data...
Computing Atmospheric mass density...

Documentation

Showing up to 5 results
|